{"data":{"norad_id":82500,"epoch":"2026-05-22T09:34:32.546784Z","epoch_age_seconds":289844,"freshness":"STALE","line1":"1 82500U          26142.39898781  .00002114  00000+0  95212-3 0  9992","line2":"2 82500  70.9671  23.4571 0119306 229.4191 129.6505 14.19671036641745","mean_motion":14.19671036,"eccentricity":0.0119306,"inclination_deg":70.9671,"raan_deg":23.4571,"arg_perigee_deg":229.4191,"mean_anomaly_deg":129.6505,"bstar":0.00095212,"rev_number":64174,"period_min":101.43194891524,"perigee_km":740.51030565311,"apogee_km":912.42076770127,"semimajor_km":7204.6025366772,"source":"CELESTRAK","updated_at":"2026-05-25T13:38:11.190626Z"}}